TimeEET,TemperatureF,Dew PointF,Humidity,Sea Level PressureIn,VisibilityMPH,Wind Direction,Wind SpeedMPH,Gust SpeedMPH,PrecipitationIn,Events,Conditions,WindDirDegrees,DateUTC
12:00 AM,77.0,66.2,69,29.92,6.2,NNW,6.9,-,N/A,,Partly Cloudy,330,2013-09-27 22:00:00
1:00 AM,75.2,66.2,73,29.89,6.2,North,6.9,-,N/A,,Partly Cloudy,350,2013-09-27 23:00:00
2:00 AM,76,67,66,29.91,6,NW,6.9,,,,Scattered Clouds,320,2013-09-28 00:00:00
2:00 AM,75.2,66.2,73,29.89,6.2,NW,6.9,-,N/A,,Partly Cloudy,320,2013-09-28 00:00:00
3:00 AM,75.2,66.2,73,29.89,6.2,NNW,6.9,-,N/A,,Partly Cloudy,330,2013-09-28 01:00:00
4:00 AM,75.2,66.2,73,29.89,6.2,NW,5.8,-,N/A,,Partly Cloudy,310,2013-09-28 02:00:00
5:00 AM,75.2,62.6,65,29.86,-9999.0,NNW,3.5,-,N/A,,Clear,330,2013-09-28 03:00:00
6:00 AM,75.2,64.4,69,29.89,6.2,NNW,5.8,-,N/A,,Partly Cloudy,330,2013-09-28 04:00:00
7:00 AM,77.0,64.4,65,29.89,6.2,NNW,6.9,-,N/A,,Scattered Clouds,330,2013-09-28 05:00:00
8:00 AM,79,65,53,29.92,6,WNW,6.9,,,,Partly Cloudy,290,2013-09-28 06:00:00
8:00 AM,78.8,64.4,61,29.92,6.2,WNW,6.9,-,N/A,,Scattered Clouds,290,2013-09-28 06:00:00
9:00 AM,80.6,64.4,58,29.92,6.2,NW,9.2,-,N/A,,Scattered Clouds,320,2013-09-28 07:00:00
10:00 AM,84.2,64.4,51,29.95,6.2,NW,5.8,-,N/A,,Partly Cloudy,310,2013-09-28 08:00:00
11:00 AM,84.2,68.0,58,29.95,6.2,WNW,6.9,-,N/A,,Scattered Clouds,290,2013-09-28 09:00:00
12:00 PM,84.2,66.2,55,29.92,6.2,West,9.2,-,N/A,,Scattered Clouds,280,2013-09-28 10:00:00
1:00 PM,84.2,66.2,55,29.92,6.2,NW,10.4,-,N/A,,Scattered Clouds,310,2013-09-28 11:00:00
2:00 PM,84,64,41,29.93,6,NNW,10.4,,,,Scattered Clouds,330,2013-09-28 12:00:00
2:00 PM,84.2,64.4,51,29.92,6.2,NNW,10.4,-,N/A,,Scattered Clouds,330,2013-09-28 12:00:00
3:00 PM,82.4,64.4,54,29.92,6.2,NNW,10.4,-,N/A,,Partly Cloudy,340,2013-09-28 13:00:00
4:00 PM,82.4,66.2,58,29.92,6.2,North,8.1,-,N/A,,Partly Cloudy,360,2013-09-28 14:00:00
5:00 PM,78.8,66.2,65,29.92,6.2,North,8.1,-,N/A,,Partly Cloudy,350,2013-09-28 15:00:00
6:00 PM,77.0,64.4,65,29.92,6.2,NW,5.8,-,N/A,,Partly Cloudy,320,2013-09-28 16:00:00
7:00 PM,77.0,64.4,65,29.92,6.2,NNW,4.6,-,N/A,,Partly Cloudy,340,2013-09-28 17:00:00
8:00 PM,76,65,61,29.95,6,North,3.5,,,,Scattered Clouds,350,2013-09-28 18:00:00
8:00 PM,75.2,64.4,69,29.95,6.2,North,3.5,-,N/A,,Partly Cloudy,350,2013-09-28 18:00:00
9:00 PM,75.2,64.4,69,29.95,6.2,NW,4.6,-,N/A,,Partly Cloudy,320,2013-09-28 19:00:00
10:00 PM,75.2,64.4,69,29.95,6.2,NW,4.6,-,N/A,,Partly Cloudy,310,2013-09-28 20:00:00
11:00 PM,75.2,64.4,69,29.95,6.2,NW,2.3,-,N/A,,Partly Cloudy,320,2013-09-28 21:00:00